This demonstration page uses our WeatherBlox Daily Observations layout. Learn more.

Left ArrowRight Arrow

39.92423, -83.80882

Hourly Observations for January 28, 2019

Temp ( °F °C ) Dew Point ( °F °C ) Humidity (%) Winds ( mph kmh ) Pressure ( in mb ) Visibility ( mi km ) Precip ( " mm )
12:56 am 00:56 Cloudy 16 -8.9 11 -11.7 80 80 E 8 13 30.08 1019 10 16 N/A
1:56 am 01:56 Cloudy 17 -8.3 11 -11.7 77 77 ESE 15 24 30.03 1017 10 16 N/A
2:56 am 02:56 Cloudy 17 -8.3 12 -11.1 80 80 ESE 10 17 29.99 1016 10 16 N/A
3:56 am 03:56 Cloudy 18 -7.8 13 -10.6 81 81 SE 9 15 30.00 1016 10 16 N/A
4:56 am 04:56 Cloudy 19 -7.2 15 -9.4 84 84 SE 10 17 29.98 1015 10 16 N/A
5:56 am 05:56 Cloudy 21 -6.1 16 -8.9 81 81 SE 14 22 29.94 1014 10 16 N/A
6:56 am 06:56 Cloudy 22 -5.6 18 -7.8 85 85 SE 14 22 29.93 1014 10 16 N/A
7:56 am 07:56 Cloudy 23 -5 18 -7.8 81 81 SE 15 24 29.91 1013 10 16 N/A
8:56 am 08:56 Cloudy 25 -3.9 20 -6.7 81 81 SSE 17 28 29.89 1012 10 16 N/A
9:56 am 09:56 Cloudy 27 -2.8 22 -5.6 81 81 SSE 17 28 29.86 1011 10 16 N/A
10:56 am 10:56 Cloudy 32 undefined 26 -3.3 79 79 SSE 15 24 29.82 1010 10 16 N/A
11:56 am 11:56 Cloudy 36 2.2 28 -2.2 73 73 S 13 20 29.79 1009 10 16 N/A
12:56 pm 12:56 Cloudy 38 3.3 30 -1.1 73 73 S 10 17 29.74 1007 10 16 N/A
1:56 pm 13:56 Cloudy 40 4.4 31 -0.6 70 70 S 14 22 29.70 1006 10 16 N/A
2:56 pm 14:56 Cloudy with Light Rain 42 5.6 33 0.6 71 71 S 16 26 29.67 1005 10 16 N/A
3:56 pm 15:56 Cloudy 44 6.7 34 1.1 68 68 SSW 15 24 29.65 1004 10 16 N/A
4:56 pm 16:56 Cloudy 44 6.7 34 1.1 68 68 SSW 14 22 29.65 1004 10 16 N/A
5:56 pm 17:56 Cloudy with Light Rain 42 5.6 37 2.8 82 82 WSW 21 33 29.67 1005 9 14 N/A
6:56 pm 18:56 Cloudy with Light Rain 41 5 38 3.3 89 89 SW 15 24 29.68 1005 10 16 N/A
7:54 pm 19:54 Cloudy with Light Rain 39 4 37 3 93 93 SW 17 28 29.70 1006 10 16 N/A
7:56 pm 19:56 Cloudy with Light Rain 40 4.4 37 2.8 89 89 WSW 20 31 29.69 1005 9 14 N/A
8:34 pm 20:34 Cloudy with Light Rain 39 4 37 3 93 93 WSW 18 30 29.71 1006 7 11 0.01 0.25
8:56 pm 20:56 Cloudy with Light Rain 38 3.3 36 2.2 93 93 WSW 18 30 29.70 1006 9 14 0.02 0.51
9:04 pm 21:04 Cloudy with Light Rain 37 3 36 2 93 93 WSW 16 26 29.71 1006 10 16 0.01 0.25
9:13 pm 21:13 Cloudy with Light Rain 37 3 36 2 93 93 WSW 18 30 29.71 1006 7 11 0.02 0.51
9:35 pm 21:35 Cloudy with Rain 34 1 32 undefined 93 93 W 21 33 29.75 1007 4 6 0.04 1.02
9:56 pm 21:56 Cloudy 32 undefined 31 -0.6 96 96 W 22 35 29.75 1007 9 14 0.04 1.02
10:06 pm 22:06 Cloudy 32 undefined 30 -1 93 93 W 20 31 29.77 1008 10 16 N/A
10:56 pm 22:56 Windy with Snow Likely 29 -1.7 26 -3.3 89 89 W 21 33 29.78 1009 9 14 N/A
11:56 pm 23:56 Cloudy 26 -3.3 23 -5 88 88 W 18 30 29.82 1010 8 13 N/A

Powered by AerisWeather